DW9421 Weather Reports


time (UTC)temp
C
wind
direction
speed
KPH
gust
KPH
rain 1hr
cm
rain 24hr
cm
rain mn
cm
humidity
%
barometer
mb
20260505153050 24 360 3.2 11.3 0.00 0.00 0.00 46 1012.0
20260505151546 24 360 3.2 11.3 0.00 0.00 0.00 46 1011.9
20260505124513 18 360 0.0 4.8 0.00 0.00 0.00 57 1012.5
20260505123037 17 360 1.6 8.0 0.00 0.00 0.00 60 1012.5
20260505121504 17 360 1.6 11.3 0.00 0.00 0.00 62 1012.3
20260505120003 16 360 0.0 3.2 0.00 0.00 0.00 66 1012.3
20260505114501 15 360 0.0 6.4 0.00 0.00 0.00 67 1012.1
20260505113106 15 360 0.0 1.6 0.00 0.00 0.00 70 1012.0
20260505111600 15 360 0.0 1.6 0.00 0.00 0.00 70 1011.9
20260505101557 14 360 0.0 4.8 0.00 0.00 0.00 69 1011.4
20260505100052 14 360 0.0 0.0 0.00 0.00 0.00 69 1011.3
20260505094558 14 360 0.0 0.0 0.00 0.00 0.00 67 1011.3
20260505093054 15 360 0.0 3.2 0.00 0.00 0.00 68 1011.1
20260505091547 15 360 0.0 3.2 0.00 0.00 0.00 67 1010.9
20260505090046 15 360 0.0 4.8 0.00 0.00 0.00 67 1010.9
20260505084544 15 360 0.0 4.8 0.00 0.00 0.00 67 1011.0
20260505083057 15 360 0.0 4.8 0.00 0.00 0.00 66 1011.1
20260505081541 15 360 0.0 1.6 0.00 0.00 0.00 66 1011.0
20260505080043 15 360 0.0 1.6 0.00 0.00 0.00 66 1010.9
20260505074540 15 360 0.0 4.8 0.00 0.00 0.00 65 1011.0
20260505073041 15 360 0.0 4.8 0.00 0.00 0.00 65 1010.9
20260505071539 15 360 0.0 3.2 0.00 0.00 0.00 66 1010.8
20260505070053 15 360 0.0 3.2 0.00 0.00 0.00 67 1010.7
20260505064538 15 360 0.0 3.2 0.00 0.00 0.00 67 1010.6
20260505063038 15 360 0.0 3.2 0.00 0.00 0.00 67 1010.7
20260505061554 15 360 0.0 8.0 0.00 0.00 0.00 66 1010.6
20260505060036 15 360 0.0 1.6 0.00 0.00 0.00 66 1010.7
20260505054543 16 360 0.0 0.0 0.00 0.00 0.00 65 1010.7
20260505053031 16 360 0.0 1.6 0.00 0.00 0.00 64 1010.8
20260505051530 16 360 0.0 0.0 0.00 0.00 0.00 64 1010.9
20260505041522 17 360 0.0 0.0 0.00 0.00 0.00 59 1011.0
20260505040035 17 360 0.0 0.0 0.00 0.00 0.00 58 1010.8
20260505034530 17 360 0.0 0.0 0.00 0.00 0.00 56 1010.8
20260505033019 18 360 0.0 0.0 0.00 0.00 0.00 55 1010.8
20260505031518 18 360 0.0 0.0 0.00 0.00 0.00 54 1010.8
20260505030019 18 360 0.0 0.0 0.00 0.00 0.00 53 1010.8
20260505024517 19 360 0.0 0.0 0.00 0.00 0.00 52 1010.7
20260505023016 19 360 0.0 1.6 0.00 0.00 0.00 52 1010.8
20260505021516 20 360 0.0 3.2 0.00 0.00 0.00 50 1010.7
20260505020015 20 360 1.6 4.8 0.00 0.00 0.00 50 1010.5
20260505014516 20 360 0.0 3.2 0.00 0.00 0.00 50 1010.5
20260505013015 20 360 0.0 6.4 0.00 0.00 0.00 48 1010.3
20260505011514 20 360 0.0 3.2 0.00 0.00 0.00 47 1010.2
20260505010013 20 360 0.0 1.6 0.00 0.00 0.00 46 1010.1
20260505004517 21 360 0.0 3.2 0.00 0.00 0.00 45 1009.9
20260505003013 21 360 0.0 4.8 0.00 0.00 0.00 44 1009.9
20260505001513 21 360 1.6 4.8 0.00 0.00 0.00 43 1009.9
20260505000014 21 360 0.0 4.8 0.00 0.00 0.00 43 1009.8
20260504234512 21 360 0.0 9.7 0.00 0.00 0.00 42 1009.7
20260504233012 21 360 0.0 4.8 0.00 0.00 0.00 41 1009.7
20260504231510 22 360 1.6 11.3 0.00 0.00 0.00 40 1009.6
20260504230010 22 360 1.6 4.8 0.00 0.00 0.00 39 1009.6
20260504224509 22 360 1.6 8.0 0.00 0.00 0.00 38 1009.6
20260504223010 22 360 1.6 12.9 0.00 0.00 0.00 38 1009.7
20260504221509 22 360 4.8 16.1 0.00 0.00 0.00 37 1009.5
20260504220021 22 360 4.8 17.7 0.00 0.00 0.00 37 1009.6
20260504214507 23 360 6.4 20.9 0.00 0.00 0.00 36 1009.5
20260504213008 23 360 4.8 16.1 0.00 0.00 0.00 36 1009.6
20260504211506 23 360 1.6 11.3 0.00 0.00 0.00 35 1009.6
20260504210005 23 360 3.2 11.3 0.00 0.00 0.00 36 1009.6
20260504204503 23 360 1.6 11.3 0.00 0.00 0.00 35 1009.6
20260504203002 23 360 1.6 6.4 0.00 0.00 0.00 36 1009.9
20260504201600 23 360 6.4 17.7 0.00 0.00 0.00 35 1010.0
20260504200058 23 360 3.2 8.0 0.00 0.00 0.00 35 1010.3
20260504194600 23 360 1.6 4.8 0.00 0.00 0.00 35 1010.3
20260504193112 23 360 3.2 14.5 0.00 0.00 0.00 34 1010.6
20260504191553 23 360 3.2 14.5 0.00 0.00 0.00 35 1010.8
20260504190056 23 360 6.4 16.1 0.00 0.00 0.00 34 1011.2
20260504184548 23 360 3.2 11.3 0.00 0.00 0.00 35 1011.4
20260504183056 22 360 3.2 11.3 0.00 0.00 0.00 37 1011.6
20260504181543 22 360 3.2 9.7 0.00 0.00 0.00 36 1011.9
20260504180107 22 360 1.6 8.0 0.00 0.00 0.00 36 1012.1
20260504174539 22 360 3.2 11.3 0.00 0.00 0.00 37 1012.2
20260504173038 21 360 3.2 12.9 0.00 0.00 0.00 38 1012.3
20260504171533 21 360 3.2 14.5 0.00 0.00 0.00 37 1012.6